NOAA 16 DEB

Satellite information

Favourite Embed

Satellite Type and Status

DEBRISIN ORBIT

Key statistics

Satellite NOAA 16 DEB at a glance.

Uptime

9055

Days in orbit

Revolutions

≈ 14.2

Per day

Orbit

SSO

Sun Synchronous Orbit

Inclination

98.7

Latest

Satellite identification and parameters

Extended collection of information and parameters for NOAA 16 DEB.

Object identification

Identified? True

Debris? True

Object name: NOAA 16 DEB

International designator: 2000-055SS

Object number (NORAD): 42398

Object ID (CCSDS): 42398

Country: UNITED STATES OF AMERICA (US)

Current information (Y/N): Y

RCS size: SMALL

Orbital parameters

Period: 101.757 minutes

Inclination: 98.6558 deg

SMA: 7219.967 km

Apoapsis: 865.737 km

Periapsis: 817.928 km

RAAN: 196.6325 deg

Eccentricy: 0.0033109

Argument of periapsis: 139.5036 deg

Mean anomaly: 220.8611 deg

Mean motion: 14.15141703 rev/day

Mean motion (dot): 0.00001903 rev/day2

B* drag term: 0.00099685 1/REarth

Two-line elements (TLE)

Creation date: July 6, 2025, 4:10 a.m.

Reference frame: TEME

Reference center: EARTH

Epoch: July 5, 2025, 7:44 p.m. UTC

TLE line 0: 0 NOAA 16 DEB

TLE line 1: 1 42398U 00055SS 25186.82244443 .00001903 00000-0 99685-3 0 9992

TLE line 2: 2 42398 98.6558 196.6325 0033109 139.5036 220.8611 14.15141703480115

Live tracking on map

Real-time ground track for satellite NOAA 16 DEB.

In-orbit conjunctions

A list of the most updated potential collisions computed for object NOAA 16 DEB.

Target Orbit TCA Probability of collision Miss distance Type
SL-16 DEB LEO 2025-05-18 11:45:26 0.0003580026 60.0 (m) DEBRIS
CZ-6A DEB LEO 2025-01-27 06:25:26 0.0001676773 982.0 (m) DEBRIS

Associated space launch

The NOAA K, L and M POES satellites begin the fifth generation of improved environmental monitoring in support of NOAA missions. The instrument payload has significant improvements and additions/deletions. The instrument changes have effected the spacecraft subsystems and data formats.

NOAA 16 DEB was lifted into orbit during the mission ‘Titan II SLV | NOAA 16’, on board a Titan II SLV space rocket.

The launch took place on Sept. 21, 2000, 10:22 a.m. from Space Launch Complex 4W.

For more information about the launch, click the button.

Launch to space Titan II SLV | NOAA 16
Titan II SLV | NOAA 16

Agency: N/A

Status: Launch Successful

Launch date: Sept. 21, 2000, 10:22 a.m. UTC

Rocket: Titan II SLV

Launch pad: Space Launch Complex 4W

Location: Vandenberg SFB, CA, USA

...

Latest news about this satellite

There are no fresh news available about this satellite. Check back as we update our databases every day.


Newsletter sign-up

Weekly statistics, charts and insights to help you stay on top of the space industry.